www.pogodaiklimat.ru

Погода и климат >> Архив погоды >> Россия >> Ямало-Ненецкий АО >> Тазовский


АРХИВ ПОГОДЫ в Тазовском

Время (UTC), дата Ветер
(напр.,м/с)
 
Видим.   Явления Облачность Т
(С)
Тd
(С)
f
(%)
Тe
(С)
Тes
(С)
Комфортность P
(гПа)
Po
(гПа)
Тmin
(С)
Tmax
(С)
R
(мм)
R24
(мм)
S
(см)
18 15.07 З 3 50 км 3/0
[Ci fib]
+22.4 +17.5 74 +27 +27 душно 1011.0 1007.8
21 15.07 ЮЗ 4 50 км 3/0
[Ci fib]
+22.0 +16.7 72 +26 +26 душно 1011.4 1008.2
00 16.07 С 3 50 км 3/0
[Ci fib]
+18.5 +16.6 89 +19 +21 1012.9 1009.6
03 16.07 С 3 50 км 6/0
[Ci fib]
+23.3 +18.6 75 +29 +34 душно 1013.5 1010.3 +18.5
06 16.07 С 3 50 км 4/0
[Ci fib]
+26.8 +19.4 64 +32 +40 очень
душно
1013.7 1010.5
09 16.07 С 3 50 км 3/1 600 м
[Cu med, cong Ci fib]
+29.2 +18.8 54 +35 +41 очень
душно
1013.6 1010.5
12 16.07 С 4 50 км 3/1 600 м
[Cu med, cong Ci fib]
+28.0 +19.3 59 +34 +36 очень
душно
1013.8 1010.7
15 16.07 СВ 3 50 км 1/0
[Ci fib]
+23.7 +17.6 69 +28 +28 душно 1014.4 1011.2 +29.4
18 16.07 СВ 4 50 км 3/0
[Ac trans]
+19.2 +15.4 79 +21 +21 комфорт 1014.7 1011.4
21 16.07 СВ 5 50 км 3/3 600 м
[Sc]
+17.0 +14.7 86 +16 +16 1014.8 1011.5
00 17.07 В 5 50 км 3/3 600 м
[Sc]
+17.5 +14.6 83 +17 +18 1015.2 1011.9
03 17.07 СВ 5 50 км 1/1 600 м
[Cu med, cong]
+21.1 +15.6 71 +24 +27 комфорт 1015.3 1012.1 +16.8
06 17.07 СВ 6 50 км ясно +26.6 +17.4 57 +31 +35 душно 1014.4 1011.2
09 17.07 СВ 6 50 км ясно +28.8 +16.3 47 +32 +36 душно 1013.3 1010.2
12 17.07 СВ 5 50 км ясно +27.8 +17.0 52 +32 +34 душно 1013.2 1010.0
15 17.07 СВ 4 50 км ясно +23.1 +16.4 66 +28 +28 душно 1013.0 1009.8 +29.1
18 17.07 В 4 20 км 3/0
[Ci fib]
+18.8 +14.4 76 +20 +20 1013.6 1010.3
21 17.07 В 4 50 км 3/0
[Ci fib]
+16.3 +13.7 85 +16 +16 1013.0 1009.7
00 18.07 В 3 50 км 3/0
[Ci fib]
+17.0 +14.0 82 +17 +18 1012.9 1009.6
03 18.07 В 2 50 км ясно +22.2 +16.3 69 +26 +32 душно 1012.6 1009.4 +15.9
06 18.07 В 4 50 км ясно +26.8 +16.5 53 +30 +37 душно 1012.2 1009.0
09 18.07 В 2 50 км ясно +30.0 +12.6 34 +31 +40 жарко 1011.3 1008.2
12 18.07 В 1 50 км ясно +30.4 +12.0 32 +31 +35 жарко 1010.9 1007.8
15 18.07 С 1 50 км ясно +26.6 +17.2 56 +31 +31 душно 1011.2 1008.0 +30.8
18 18.07 В 2 20 км ясно +22.5 +18.7 79 +28 +28 душно 1011.6 1008.4
21 18.07 В 3 20 км ясно +19.7 +17.8 89 +23 +23 комфорт 1012.2 1009.0
00 19.07 ЮВ 4 50 км ясно +20.9 +17.9 83 +25 +26 комфорт 1012.9 1009.7
03 19.07 В 4 50 км ясно +24.0 +18.8 73 +29 +33 душно 1013.1 1009.9 +19.6
06 19.07 ЮВ 5 50 км ясно +26.8 +19.3 63 +32 +38 очень
душно
1013.2 1010.1
09 19.07 В 5 50 км ясно +28.3 +20.1 61 +35 +39 очень
душно
1012.9 1009.7
12 19.07 В 5-10
{10}
50 км 3/3 600 м
[Cu med, cong]
+27.4 +18.4 58 +32 +34 очень
душно
1012.9 1009.7
15 19.07 ЮВ 4
{10}
50 км 3/0
[Ci fib]
+24.1 +18.5 71 +29 +29 душно 1013.3 1010.1 +28.3
18 19.07 ЮВ 3
{10}
50 км 3/0
[Ac trans]
+21.6 +17.2 76 +26 +26 душно 1014.1 1010.8
21 19.07 ЮВ 4 50 км 4/1 600 м
[Cb calv Ac trans Ci fib]
+19.8 +14.6 72 +22 +22 комфорт 1014.5 1011.2
00 20.07 ЮВ 4 20 км ясно +19.0 +14.0 73 +20 +21 1014.9 1011.6
03 20.07 ЮВ 4 50 км 3/3 600 м
[Cb cap]
+22.7 +16.6 68 +27 +30 душно 1014.7 1011.5 +18.7
06 20.07 ЮВ 4 20 км 3/0
[Ci fib]
+26.4 +18.1 60 +31 +37 душно 1014.2 1011.0
09 20.07 ЮВ 4
{11}
20 км 3/0
[Ci fib]
+29.1 +12.1 35 +30 +35 жарко 1013.7 1010.5
12 20.07 ЮВ 3 20 км 6/0
[Ci fib]
+28.1 +14.4 43 +30 +33 жарко 1013.5 1010.3
15 20.07 ЮВ 2 20 км 9/0
[Ci fib]
+23.7 +17.2 67 +28 +28 душно 1013.6 1010.4 +29.2
18 20.07 Ю 4 20 км 9/0
[Ci fib]
+20.0 +13.1 64 +22 +22 комфорт 1014.2 1011.0
21 20.07 Ю 5 20 км 10/3 1000 м
[Cb calv Cs]
+18.4 +10.9 62 +18 +18 1014.0 1010.7
00 21.07 Ю 4 20 км 8/3 1000 м
[Cu med, cong Ci fib]
+17.7 +11.1 65 +17 +18 1014.2 1010.9
03 21.07 ЮВ 4 20 км 3/0
[Ci fib]
+21.7 +13.3 59 +24 +28 комфорт 1013.6 1010.4 +17.2
06 21.07 ЮВ 5 20 км 4/0
[Ci fib]
+24.7 +16.4 60 +28 +33 душно 1013.0 1009.8
09 21.07 Ю 4 20 км 6/1 1000 м
[Cu hum Ci fib]
+28.7 +11.7 35 +30 +34 жарко 1012.3 1009.1
12 21.07 Ю 3 4000 м дым 3/0
[Ac trans]
+27.9 +11.0 35 +29 +31 жарко 1012.0 1008.9
15 21.07 ЮЗ 3 4000 м дым 3/0
[Cc]
+24.6 +12.4 47 +26 +27 жарко 1012.0 1008.8 +29.0
18 21.07 Ю 3 4000 м дым 5/0
[Ci fib]
+19.4 +13.7 70 +21 +21 комфорт 1011.7 1008.5
21 21.07 ЮЗ 2 4000 м дым 5/0
[Ac trans]
+15.9 +13.1 83 +16 +16 1011.8 1008.6
00 22.07 З 2 10 км 5/0
[]
+19.1 +16.4 84 8
03 22.07 С 3 20 км 9/3 600 м
[Cb cap Ac trans]
+20.6 +17.7 83 +25 +26 комфорт 1011.6 1008.3 +15.9
06 22.07 С 5 20 км 9/0
[Ac trans]
+21.7 +15.6 68 +25 +28 комфорт 1011.6 1008.4
09 22.07 С 4
{11}
20 км 9/0
[Ac trans]
+22.0 +15.1 65 +26 +28 душно 1011.8 1008.6
12 22.07 С 5
{11}
20 км 8/1 1000 м
[Sc Ci fib]
+21.6 +15.6 69 +25 +26 комфорт 1011.8 1008.6
15 22.07 С 4
{10}
50 км 8/0
[Ac trans Ci fib]
+19.9 +14.2 70 +22 +22 комфорт 1012.0 1008.7 +23.7

 

Местоположение метеостанции Тазовский (Ямало-Ненецкий АО, Россия): широта 67.47 долгота 78.73 высота над уровнем моря 28 м.

В архиве по умолчанию представлена погода в Тазовском за последнюю неделю. Архивные данные за месяц целиком и за предыдущие месяцы, начиная с января 2011 года, Вы можете получить, выбрав интересующий диапазон дат из раскрывающегося списка и нажав кнопку "Ввод!".


*Определитесь, кто Вы:
робот инопланетянин человек

Внимание! Время в таблицах - всемирное. Для получения местного времени необходимо прибавить поправку, которая равна 5 ч.

Смотрите также архив погоды в соседних городах и на ближайших метеорологических станциях:

Погода в Уренгое (Ямало-Ненецкий АО, Россия) (170 км)
Погода в Новом Уренгое (Ямало-Ненецкий АО, Россия) (175 км)
Погода в Антипаюте (Ямало-Ненецкий АО, Россия) (195 км)
Погода в Советской Речке (Красноярский край, Россия) (231 км)
Погода в Новом Порте (Ямало-Ненецкий АО, Россия) (249 км)
Погода в Красноселькупске (Ямало-Ненецкий АО, Россия) (256 км)
Погода в Пангодах (Ямало-Ненецкий АО, Россия) (261 км)
Погода в Ныде (Ямало-Ненецкий АО, Россия) (268 км)
Погода в Тарко-Сале (Ямало-Ненецкий АО, Россия) (287 км)
Погода в Игарке (Красноярский край, Россия) (334 км)

Пояснения к столбцам:

Ветер - указаны скорость ветра в м/с - средняя за 10 мин, порывы в срок и между сроками (в фигурных скобках) и направление, откуда дует ветер: С - северный, СВ - северо-восточный, В - восточный, ЮВ - юго-восточный, Ю - южный, ЮЗ - юго-западный, З - западный, СЗ - северо-западный.
Видимость - горизонтальная дальность видимости в метрах или километрах. При видимости от 1 до 10 км при отсутствии осадков обычно наблюдается дымка, при ухудшении видимости до 1 км и менее - туман. В сухую погоду видимость может ухудшаться дымом, пылью или мглою.
Явления - указаны атмосферные явления, наблюдавшиеся в срок или в последний час перед сроком; фигурными скобками обозначены явления, наблюдавшиеся между сроками (за 1-3 часа до срока); квадратными скобками обозначены град или гололедные отложения с указанием их диаметра в мм.
Облачность - указаны через наклонную черту общая и нижняя облачность в баллах и высота нижней границы облаков в метрах; квадратными скобками обозначены формы облаков: Ci - перистые, Cs - перисто-слоистые, Cc - перисто-кучевые, Ac - высококучевые, As - высокослоистые, Sc - слоисто-кучевые, Ns - слоисто-дождевые, Cu - кучевые, Cb - кучево-дождевые. Подробнее классификацию облаков см. в Атласе облаков (PDF).
T - Температура воздуха - температура, измеренная на высоте 2 м над землей.
Td - Температура точки росы - температура, при понижении до которой содержащийся в воздухе водяной пар достигнет насыщения.
f - Относительная влажность воздуха - влажноcть воздуха, измеренная на высоте 2 м над землей.
Te - Эффективная температура - температура, которую ощущает одетый по сезону человек в тени. Характеристика душности погоды. При расчете учитывается влияние влажности воздуха и скорости ветра на теплоощущения человека.
Tes - Эффективная температура на солнце - температура, которую ощущает человек, с поправкой на солнечный нагрев. Характеристика знойности погоды. Зависит от высоты солнца над горизонтом, облачности и скорости ветра. Ночью, в пасмурную погоду, а также при ветре 12 м/с и более поправка равна нулю.
P - Атмосферное давление - приведенное к уровню моря атмосферное давление.
Po - Атмосферное давление - измеренное на уровне метеостанции атмосферное давление.
Tmin - Минимальная температура - минимум температуры воздуха на высоте 2 м над землей.
Tmax - Максимальная температура - максимум температуры воздуха на высоте 2 м над землей.
R - Количество осадков - Количество выпавших осадков за период времени, мм. При наведении курсора мыши на число - период времени, за который выпало указанное количество осадков.
R24 - Количество осадков - Количество выпавших осадков за 24 часа, мм.
S - Снежный покров - Высота снежного покрова, см. При наведении курсора мыши на число - состояние снежного покрова и степень покрытия местности в баллах.